| time (UTC) | temp C | wind direction | speed KPH | gust KPH | rain 1hr cm | rain 24hr cm | rain mn cm | humidity % | barometer mb |
| 20260905190333 | 20 | 262 | 11.3 | 16.1 | 0.00 | 0.00 | 0.00 | ||
| 20260905185925 | 20 | 260 | 9.7 | 16.1 | 0.00 | 0.00 | 0.00 | ||
| 20260905185522 | 20 | 255 | 8.0 | 14.5 | 0.00 | 0.00 | 0.00 | ||
| 20260905185121 | 20 | 262 | 11.3 | 14.5 | 0.00 | 0.00 | 0.00 | ||
| 20260905184720 | 20 | 269 | 11.3 | 16.1 | 0.00 | 0.00 | 0.00 | ||
| 20260905184318 | 20 | 272 | 9.7 | 14.5 | 0.00 | 0.00 | 0.00 | ||
| 20260905183917 | 20 | 270 | 12.9 | 16.1 | 0.00 | 0.00 | 0.00 | ||
| 20260905183514 | 20 | 278 | 12.9 | 19.3 | 0.00 | 0.00 | 0.00 | ||
| 20260905183113 | 20 | 272 | 11.3 | 16.1 | 0.00 | 0.00 | 0.00 | ||
| 20260905182712 | 20 | 277 | 11.3 | 14.5 | 0.00 | 0.00 | 0.00 | ||
| 20260905182310 | 20 | 271 | 9.7 | 16.1 | 0.00 | 0.00 | 0.00 | ||
| 20260905181901 | 20 | 268 | 11.3 | 19.3 | 0.00 | 0.00 | 0.00 | ||
| 20260905181459 | 20 | 277 | 16.1 | 24.1 | 0.00 | 0.00 | 0.00 | ||
| 20260905181059 | 20 | 270 | 16.1 | 22.5 | 0.00 | 0.00 | 0.00 | ||
| 20260905180657 | 20 | 270 | 14.5 | 22.5 | 0.00 | 0.00 | 0.00 | ||
| 20260905180254 | 20 | 269 | 14.5 | 16.1 | 0.00 | 0.00 | 0.00 | ||
| 20260905175853 | 20 | 272 | 14.5 | 22.5 | 0.00 | 0.00 | 0.00 | ||
| 20260905175452 | 20 | 272 | 11.3 | 20.9 | 0.00 | 0.00 | 0.00 | ||
| 20260905175051 | 20 | 268 | 12.9 | 19.3 | 0.00 | 0.00 | 0.00 | ||
| 20260905174649 | 20 | 277 | 11.3 | 16.1 | 0.00 | 0.00 | 0.00 | ||
| 20260905174247 | 20 | 282 | 9.7 | 16.1 | 0.00 | 0.00 | 0.00 | ||
| 20260905173839 | 20 | 274 | 12.9 | 25.7 | 0.00 | 0.00 | 0.00 | ||
| 20260905173437 | 20 | 269 | 14.5 | 19.3 | 0.00 | 0.00 | 0.00 | ||
| 20260905173036 | 20 | 270 | 11.3 | 19.3 | 0.00 | 0.00 | 0.00 | ||
| 20260905172634 | 20 | 271 | 11.3 | 17.7 | 0.00 | 0.00 | 0.00 | ||
| 20260905172232 | 20 | 270 | 12.9 | 19.3 | 0.00 | 0.00 | 0.00 | ||
| 20260905171831 | 20 | 270 | 11.3 | 22.5 | 0.00 | 0.00 | 0.00 | ||
| 20260905171429 | 20 | 277 | 12.9 | 20.9 | 0.00 | 0.00 | 0.00 | ||
| 20260905171027 | 20 | 269 | 11.3 | 16.1 | 0.00 | 0.00 | 0.00 | ||
| 20260905170626 | 21 | 270 | 11.3 | 14.5 | 0.00 | 0.00 | 0.00 | ||
| 20260905170224 | 21 | 272 | 8.0 | 14.5 | 0.00 | 0.00 | 0.00 | ||
| 20260905165816 | 21 | 277 | 12.9 | 19.3 | 0.00 | 0.00 | 0.00 | ||
| 20260905165413 | 21 | 272 | 12.9 | 19.3 | 0.00 | 0.00 | 0.00 | ||
| 20260905165012 | 21 | 283 | 11.3 | 19.3 | 0.00 | 0.00 | 0.00 | ||
| 20260905164611 | 21 | 283 | 12.9 | 16.1 | 0.00 | 0.00 | 0.00 | ||
| 20260905164210 | 21 | 281 | 12.9 | 19.3 | 0.00 | 0.00 | 0.00 | ||
| 20260905163807 | 21 | 279 | 16.1 | 20.9 | 0.00 | 0.00 | 0.00 | ||
| 20260905163406 | 21 | 268 | 12.9 | 16.1 | 0.00 | 0.00 | 0.00 | ||
| 20260905163005 | 22 | 279 | 14.5 | 27.4 | 0.00 | 0.00 | 0.00 | ||
| 20260905162604 | 21 | 271 | 14.5 | 20.9 | 0.00 | 0.00 | 0.00 | ||
| 20260905162202 | 22 | 271 | 19.3 | 27.4 | 0.00 | 0.00 | 0.00 | ||
| 20260905161753 | 22 | 269 | 12.9 | 24.1 | 0.00 | 0.00 | 0.00 | ||
| 20260905161351 | 23 | 269 | 17.7 | 25.7 | 0.00 | 0.00 | 0.00 | ||
| 20260905160950 | 22 | 274 | 17.7 | 25.7 | 0.00 | 0.00 | 0.00 | ||
| 20260905160549 | 22 | 271 | 14.5 | 27.4 | 0.00 | 0.00 | 0.00 | ||
| 20260905160146 | 22 | 266 | 14.5 | 27.4 | 0.00 | 0.00 | 0.00 | ||
| 20260905155745 | 22 | 261 | 16.1 | 22.5 | 0.00 | 0.00 | 0.00 | ||
| 20260905155343 | 22 | 258 | 16.1 | 20.9 | 0.00 | 0.00 | 0.00 | ||
| 20260905154942 | 22 | 254 | 16.1 | 27.4 | 0.00 | 0.00 | 0.00 | ||
| 20260905154540 | 22 | 256 | 16.1 | 25.7 | 0.00 | 0.00 | 0.00 | ||
| 20260905154138 | 22 | 267 | 16.1 | 27.4 | 0.00 | 0.00 | 0.00 | ||
| 20260905153730 | 22 | 276 | 12.9 | 20.9 | 0.00 | 0.00 | 0.00 | ||
| 20260905153328 | 22 | 274 | 17.7 | 25.7 | 0.00 | 0.00 | 0.00 | ||
| 20260905152926 | 22 | 276 | 19.3 | 29.0 | 0.00 | 0.00 | 0.00 | ||
| 20260905152525 | 22 | 255 | 16.1 | 22.5 | 0.00 | 0.00 | 0.00 | ||
| 20260905152123 | 22 | 259 | 17.7 | 27.4 | 0.00 | 0.00 | 0.00 | ||
| 20260905151722 | 22 | 246 | 20.9 | 29.0 | 0.00 | 0.00 | 0.00 | ||
| 20260905151321 | 22 | 251 | 14.5 | 24.1 | 0.00 | 0.00 | 0.00 | ||
| 20260905150918 | 22 | 267 | 22.5 | 46.7 | 0.00 | 0.00 | 0.00 | ||
| 20260905150517 | 22 | 268 | 14.5 | 22.5 | 0.00 | 0.00 | 0.00 | ||
| 20260905150116 | 22 | 271 | 19.3 | 30.6 | 0.00 | 0.00 | 0.00 | ||
| 20260905145708 | 22 | 269 | 20.9 | 30.6 | 0.00 | 0.00 | 0.00 | ||
| 20260905145306 | 22 | 258 | 14.5 | 22.5 | 0.00 | 0.00 | 0.00 | ||
| 20260905144904 | 22 | 265 | 16.1 | 22.5 | 0.00 | 0.00 | 0.00 | ||
| 20260905144503 | 22 | 263 | 17.7 | 30.6 | 0.00 | 0.00 | 0.00 | ||
| 20260905144101 | 23 | 262 | 19.3 | 32.2 | 0.00 | 0.00 | 0.00 | ||
| 20260905143659 | 23 | 256 | 22.5 | 32.2 | 0.00 | 0.00 | 0.00 | ||
| 20260905143257 | 23 | 267 | 19.3 | 29.0 | 0.00 | 0.00 | 0.00 | ||
| 20260905142856 | 23 | 268 | 17.7 | 27.4 | 0.00 | 0.00 | 0.00 | ||
| 20260905142455 | 23 | 277 | 24.1 | 35.4 | 0.00 | 0.00 | 0.00 | ||
| 20260905142052 | 23 | 263 | 12.9 | 19.3 | 0.00 | 0.00 | 0.00 | ||
| 20260905141644 | 23 | 243 | 17.7 | 22.5 | 0.00 | 0.00 | 0.00 | ||
| 20260905141242 | 23 | 255 | 16.1 | 30.6 | 0.00 | 0.00 | 0.00 | ||
| 20260905140841 | 23 | 262 | 16.1 | 22.5 | 0.00 | 0.00 | 0.00 | ||
| 20260905140440 | 23 | 237 | 14.5 | 20.9 | 0.00 | 0.00 | 0.00 | ||
| 20260905140037 | 23 | 241 | 16.1 | 29.0 | 0.00 | 0.00 | 0.00 | ||
| 20260905135636 | 23 | 271 | 17.7 | 25.7 | 0.00 | 0.00 | 0.00 | ||
| 20260905135234 | 23 | 262 | 19.3 | 30.6 | 0.00 | 0.00 | 0.00 | ||
| 20260905134833 | 23 | 238 | 17.7 | 27.4 | 0.00 | 0.00 | 0.00 | ||
| 20260905134431 | 23 | 260 | 16.1 | 25.7 | 0.00 | 0.00 | 0.00 | ||
| 20260905134029 | 23 | 255 | 22.5 | 33.8 | 0.00 | 0.00 | 0.00 | ||
| 20260905133621 | 23 | 275 | 19.3 | 33.8 | 0.00 | 0.00 | 0.00 | ||
| 20260905133219 | 23 | 272 | 11.3 | 20.9 | 0.00 | 0.00 | 0.00 | ||
| 20260905132817 | 22 | 261 | 14.5 | 20.9 | 0.00 | 0.00 | 0.00 | ||
| 20260905132416 | 22 | 262 | 16.1 | 24.1 | 0.00 | 0.00 | 0.00 | ||
| 20260905132014 | 22 | 267 | 19.3 | 25.7 | 0.00 | 0.00 | 0.00 | ||
| 20260905131613 | 23 | 230 | 19.3 | 29.0 | 0.00 | 0.00 | 0.00 | ||
| 20260905131210 | 23 | 240 | 12.9 | 25.7 | 0.00 | 0.00 | 0.00 | ||
| 20260905130809 | 23 | 241 | 11.3 | 17.7 | 0.00 | 0.00 | 0.00 | ||
| 20260905130407 | 23 | 218 | 14.5 | 22.5 | 0.00 | 0.00 | 0.00 | ||
| 20260905130006 | 23 | 226 | 14.5 | 27.4 | 0.00 | 0.00 | 0.00 | ||
| 20260905125646 | 23 | 226 | 14.5 | 24.1 | 0.00 | 0.00 | 0.00 | ||
| 20260905125558 | 23 | 226 | 14.5 | 24.1 | 0.00 | 0.00 | 0.00 | ||
| 20260905125155 | 23 | 261 | 14.5 | 20.9 | 0.00 | 0.00 | 0.00 | ||
| 20260905124353 | 22 | 238 | 16.1 | 22.5 | 0.00 | 0.00 | 0.00 | ||
| 20260905123951 | 22 | 255 | 14.5 | 19.3 | 0.00 | 0.00 | 0.00 | ||
| 20260905123548 | 22 | 244 | 11.3 | 19.3 | 0.00 | 0.00 | 0.00 | ||
| 20260905123146 | 23 | 248 | 17.7 | 29.0 | 0.00 | 0.00 | 0.00 | ||
| 20260905122745 | 23 | 266 | 14.5 | 20.9 | 0.00 | 0.00 | 0.00 | ||
| 20260905122344 | 23 | 233 | 12.9 | 22.5 | 0.00 | 0.00 | 0.00 | ||
| 20260905121941 | 22 | 245 | 14.5 | 25.7 | 0.00 | 0.00 | 0.00 | ||
| 20260905121533 | 22 | 251 | 16.1 | 25.7 | 0.00 | 0.00 | 0.00 | ||
| 20260905121131 | 22 | 230 | 16.1 | 22.5 | 0.00 | 0.00 | 0.00 | ||
| 20260905120730 | 22 | 256 | 12.9 | 20.9 | 0.00 | 0.00 | 0.00 | ||
| 20260905120328 | 22 | 260 | 14.5 | 20.9 | 0.00 | 0.00 | 0.00 | ||
| 20260905115926 | 22 | 227 | 14.5 | 29.0 | 0.00 | 0.00 | 0.00 | ||
| 20260905115525 | 22 | 227 | 16.1 | 25.7 | 0.00 | 0.00 | 0.00 | ||
| 20260905115122 | 22 | 238 | 9.7 | 16.1 | 0.00 | 0.00 | 0.00 | ||
| 20260905114721 | 22 | 241 | 16.1 | 32.2 | 0.00 | 0.00 | 0.00 | ||
| 20260905114319 | 22 | 216 | 11.3 | 19.3 | 0.00 | 0.00 | 0.00 | ||
| 20260905113917 | 22 | 255 | 12.9 | 24.1 | 0.00 | 0.00 | 0.00 | ||
| 20260905113509 | 22 | 213 | 16.1 | 30.6 | 0.00 | 0.00 | 0.00 | ||
| 20260905113107 | 21 | 245 | 16.1 | 22.5 | 0.00 | 0.00 | 0.00 | ||
| 20260905112705 | 21 | 249 | 14.5 | 24.1 | 0.00 | 0.00 | 0.00 | ||
| 20260905112306 | 21 | 245 | 14.5 | 20.9 | 0.00 | 0.00 | 0.00 | ||
| 20260905111902 | 22 | 219 | 11.3 | 25.7 | 0.00 | 0.00 | 0.00 | ||
| 20260905111501 | 21 | 245 | 12.9 | 16.1 | 0.00 | 0.00 | 0.00 | ||
| 20260905111058 | 21 | 241 | 14.5 | 27.4 | 0.00 | 0.00 | 0.00 | ||
| 20260905110657 | 21 | 243 | 12.9 | 19.3 | 0.00 | 0.00 | 0.00 | ||
| 20260905110256 | 22 | 223 | 11.3 | 20.9 | 0.00 | 0.00 | 0.00 | ||
| 20260905105855 | 21 | 219 | 12.9 | 27.4 | 0.00 | 0.00 | 0.00 | ||
| 20260905105445 | 21 | 212 | 14.5 | 22.5 | 0.00 | 0.00 | 0.00 | ||
| 20260905105044 | 21 | 226 | 16.1 | 29.0 | 0.00 | 0.00 | 0.00 | ||
| 20260905104643 | 21 | 246 | 19.3 | 30.6 | 0.00 | 0.00 | 0.00 | ||
| 20260905104242 | 21 | 248 | 16.1 | 19.3 | 0.00 | 0.00 | 0.00 | ||
| 20260905103840 | 21 | 237 | 12.9 | 27.4 | 0.00 | 0.00 | 0.00 | ||
| 20260905103438 | 21 | 246 | 17.7 | 27.4 | 0.00 | 0.00 | 0.00 | ||
| 20260905103036 | 21 | 228 | 12.9 | 16.1 | 0.00 | 0.00 | 0.00 | ||
| 20260905102635 | 21 | 225 | 16.1 | 22.5 | 0.00 | 0.00 | 0.00 | ||
| 20260905102234 | 21 | 249 | 17.7 | 25.7 | 0.00 | 0.00 | 0.00 | ||
| 20260905101831 | 20 | 245 | 19.3 | 29.0 | 0.00 | 0.00 | 0.00 | ||
| 20260905101423 | 21 | 239 | 20.9 | 30.6 | 0.00 | 0.00 | 0.00 | ||
| 20260905101021 | 20 | 220 | 19.3 | 25.7 | 0.00 | 0.00 | 0.00 | ||
| 20260905100620 | 20 | 240 | 16.1 | 22.5 | 0.00 | 0.00 | 0.00 | ||
| 20260905100218 | 21 | 258 | 16.1 | 22.5 | 0.00 | 0.00 | 0.00 | ||
| 20260905095816 | 21 | 219 | 17.7 | 32.2 | 0.00 | 0.00 | 0.00 | ||
| 20260905095415 | 20 | 254 | 19.3 | 27.4 | 0.00 | 0.00 | 0.00 | ||
| 20260905095013 | 20 | 245 | 9.7 | 14.5 | 0.00 | 0.00 | 0.00 | ||
| 20260905094611 | 20 | 230 | 16.1 | 25.7 | 0.00 | 0.00 | 0.00 | ||
| 20260905094210 | 20 | 230 | 17.7 | 27.4 | 0.00 | 0.00 | 0.00 | ||
| 20260905093808 | 20 | 234 | 17.7 | 32.2 | 0.00 | 0.00 | 0.00 | ||
| 20260905093400 | 19 | 254 | 17.7 | 20.9 | 0.00 | 0.00 | 0.00 | ||
| 20260905092958 | 20 | 235 | 17.7 | 27.4 | 0.00 | 0.00 | 0.00 | ||
| 20260905092556 | 20 | 227 | 14.5 | 20.9 | 0.00 | 0.00 | 0.00 | ||
| 20260905092155 | 20 | 225 | 17.7 | 24.1 | 0.00 | 0.00 | 0.00 | ||
| 20260905091754 | 20 | 238 | 12.9 | 24.1 | 0.00 | 0.00 | 0.00 | ||
| 20260905091353 | 20 | 234 | 9.7 | 16.1 | 0.00 | 0.00 | 0.00 | ||
| 20260905090950 | 20 | 242 | 12.9 | 20.9 | 0.00 | 0.00 | 0.00 | ||
| 20260905090549 | 20 | 218 | 17.7 | 30.6 | 0.00 | 0.00 | 0.00 | ||
| 20260905090148 | 20 | 229 | 14.5 | 24.1 | 0.00 | 0.00 | 0.00 | ||
| 20260905085746 | 19 | 225 | 11.3 | 17.7 | 0.00 | 0.00 | 0.00 | ||
| 20260905085337 | 19 | 231 | 17.7 | 35.4 | 0.00 | 0.00 | 0.00 | ||
| 20260905084935 | 19 | 240 | 14.5 | 22.5 | 0.00 | 0.00 | 0.00 | ||
| 20260905084534 | 19 | 249 | 14.5 | 22.5 | 0.00 | 0.00 | 0.00 | ||
| 20260905084133 | 19 | 244 | 11.3 | 20.9 | 0.00 | 0.00 | 0.00 | ||
| 20260905083730 | 19 | 223 | 9.7 | 19.3 | 0.00 | 0.00 | 0.00 | ||
| 20260905083329 | 18 | 211 | 9.7 | 17.7 | 0.00 | 0.00 | 0.00 | ||
| 20260905082927 | 18 | 235 | 11.3 | 17.7 | 0.00 | 0.00 | 0.00 | ||
| 20260905082526 | 18 | 228 | 8.0 | 14.5 | 0.00 | 0.00 | 0.00 | ||
| 20260905082125 | 19 | 209 | 8.0 | 14.5 | 0.00 | 0.00 | 0.00 | ||
| 20260905081722 | 19 | 216 | 6.4 | 12.9 | 0.00 | 0.00 | 0.00 | ||
| 20260905081314 | 18 | 205 | 8.0 | 16.1 | 0.00 | 0.00 | 0.00 | ||
| 20260905080912 | 18 | 215 | 9.7 | 16.1 | 0.00 | 0.00 | 0.00 | ||
| 20260905080511 | 18 | 208 | 9.7 | 14.5 | 0.00 | 0.00 | 0.00 | ||
| 20260905080109 | 18 | 218 | 8.0 | 16.1 | 0.00 | 0.00 | 0.00 | ||
| 20260905075707 | 18 | 216 | 9.7 | 14.5 | 0.00 | 0.00 | 0.00 | ||
| 20260905075306 | 18 | 220 | 9.7 | 14.5 | 0.00 | 0.00 | 0.00 | ||
| 20260905074904 | 18 | 241 | 9.7 | 14.5 | 0.00 | 0.00 | 0.00 | ||
| 20260905074502 | 18 | 249 | 6.4 | 11.3 | 0.00 | 0.00 | 0.00 | ||
| 20260905074101 | 17 | 254 | 8.0 | 14.5 | 0.00 | 0.00 | 0.00 | ||
| 20260905073659 | 17 | 255 | 11.3 | 16.1 | 0.00 | 0.00 | 0.00 | ||
| 20260905073251 | 17 | 252 | 9.7 | 19.3 | 0.00 | 0.00 | 0.00 | ||
| 20260905072848 | 18 | 223 | 4.8 | 9.7 | 0.00 | 0.00 | 0.00 | ||
| 20260905072447 | 18 | 207 | 6.4 | 12.9 | 0.00 | 0.00 | 0.00 | ||
| 20260905072046 | 18 | 200 | 9.7 | 16.1 | 0.00 | 0.00 | 0.00 | ||
| 20260905071644 | 19 | 199 | 4.8 | 6.4 | 0.00 | 0.00 | 0.00 | ||
| 20260905071243 | 18 | 192 | 6.4 | 11.3 | 0.00 | 0.00 | 0.00 | ||
| 20260905070840 | 19 | 225 | 3.2 | 6.4 | 0.00 | 0.00 | 0.00 | ||
| 20260905070440 | 19 | 225 | 4.8 | 9.7 | 0.00 | 0.00 | 0.00 | ||
| 20260905070038 | 18 | 225 | 4.8 | 11.3 | 0.00 | 0.00 | 0.00 | ||
| 20260905065636 | 18 | 248 | 4.8 | 8.0 | 0.00 | 0.00 | 0.00 | ||
| 20260905065227 | 16 | 270 | 6.4 | 8.0 | 0.00 | 0.00 | 0.00 | ||
| 20260905064825 | 16 | 270 | 8.0 | 11.3 | 0.00 | 0.00 | 0.00 | ||
| 20260905064424 | 16 | 247 | 6.4 | 8.0 | 0.00 | 0.00 | 0.00 | ||
| 20260905064023 | 17 | 244 | 4.8 | 12.9 | 0.00 | 0.00 | 0.00 | ||
| 20260905063620 | 17 | 250 | 8.0 | 9.7 | 0.00 | 0.00 | 0.00 | ||
| 20260905063219 | 16 | 252 | 6.4 | 9.7 | 0.00 | 0.00 | 0.00 | ||
| 20260905062818 | 16 | 262 | 6.4 | 9.7 | 0.00 | 0.00 | 0.00 | ||
| 20260905062417 | 17 | 268 | 8.0 | 11.3 | 0.00 | 0.00 | 0.00 | ||
| 20260905062014 | 16 | 270 | 6.4 | 9.7 | 0.00 | 0.00 | 0.00 | ||
| 20260905061612 | 16 | 251 | 6.4 | 9.7 | 0.00 | 0.00 | 0.00 | ||
| 20260905060802 | 16 | 247 | 8.0 | 12.9 | 0.00 | 0.00 | 0.00 | ||
| 20260905060402 | 16 | 239 | 14.5 | 22.5 | 0.00 | 0.00 | 0.00 | ||
| 20260905055959 | 15 | 256 | 9.7 | 16.1 | 0.00 | 0.00 | 0.00 | ||
| 20260905055557 | 15 | 257 | 9.7 | 14.5 | 0.00 | 0.00 | 0.00 | ||
| 20260905055156 | 15 | 265 | 11.3 | 16.1 | 0.00 | 0.00 | 0.00 | ||
| 20260905054754 | 16 | 246 | 9.7 | 17.7 | 0.00 | 0.00 | 0.00 | ||
| 20260905054352 | 17 | 243 | 8.0 | 12.9 | 0.00 | 0.00 | 0.00 | ||
| 20260905053951 | 16 | 259 | 11.3 | 16.1 | 0.00 | 0.00 | 0.00 | ||
| 20260905053549 | 16 | 264 | 11.3 | 14.5 | 0.00 | 0.00 | 0.00 | ||
| 20260905053141 | 16 | 267 | 9.7 | 14.5 | 0.00 | 0.00 | 0.00 | ||
| 20260905052738 | 16 | 266 | 8.0 | 14.5 | 0.00 | 0.00 | 0.00 | ||
| 20260905052337 | 17 | 261 | 9.7 | 17.7 | 0.00 | 0.00 | 0.00 | ||
| 20260905051936 | 19 | 250 | 8.0 | 12.9 | 0.00 | 0.00 | 0.00 | ||
| 20260905051535 | 18 | 253 | 9.7 | 12.9 | 0.00 | 0.00 | 0.00 | ||
| 20260905051132 | 18 | 249 | 9.7 | 14.5 | 0.00 | 0.00 | 0.00 | ||
| 20260905050731 | 18 | 207 | 4.8 | 9.7 | 0.00 | 0.00 | 0.00 | ||
| 20260905050330 | 17 | 202 | 4.8 | 6.4 | 0.00 | 0.00 | 0.00 | ||
| 20260905045929 | 17 | 202 | 4.8 | 8.0 | 0.00 | 0.00 | 0.00 | ||
| 20260905045527 | 17 | 202 | 3.2 | 6.4 | 0.00 | 0.00 | 0.00 | ||
| 20260905044715 | 16 | 135 | 1.6 | 4.8 | 0.00 | 0.00 | 0.00 | ||
| 20260905044314 | 16 | 225 | 1.6 | 4.8 | 0.00 | 0.00 | 0.00 | ||
| 20260905043913 | 17 | 225 | 4.8 | 8.0 | 0.00 | 0.00 | 0.00 | ||
| 20260905043509 | 18 | 209 | 4.8 | 6.4 | 0.00 | 0.00 | 0.00 | ||
| 20260905043109 | 17 | 202 | 0.0 | 1.6 | 0.00 | 0.00 | 0.00 | ||
| 20260905042706 | 17 | 202 | 0.0 | 0.0 | 0.00 | 0.00 | 0.00 | ||
| 20260905042307 | 18 | 202 | 0.0 | 1.6 | 0.00 | 0.00 | 0.00 | ||
| 20260905041903 | 18 | 202 | 0.0 | 3.2 | 0.00 | 0.00 | 0.00 | ||
| 20260905041501 | 20 | 158 | 3.2 | 4.8 | 0.00 | 0.00 | 0.00 | ||
| 20260905041053 | 17 | 135 | 0.0 | 1.6 | 0.00 | 0.00 | 0.00 | ||
| 20260905040651 | 17 | 135 | 0.0 | 3.2 | 0.00 | 0.00 | 0.00 | ||
| 20260905040249 | 18 | 162 | 3.2 | 4.8 | 0.00 | 0.00 | 0.00 | ||
| 20260905035848 | 17 | 180 | 0.0 | 0.0 | 0.00 | 0.00 | 0.00 | ||
| 20260905035446 | 17 | 180 | 0.0 | 1.6 | 0.00 | 0.00 | 0.00 | ||
| 20260905035045 | 17 | 193 | 3.2 | 4.8 | 0.00 | 0.00 | 0.00 | ||
| 20260905034643 | 18 | 212 | 4.8 | 6.4 | 0.00 | 0.00 | 0.00 | ||
| 20260905034241 | 20 | 202 | 4.8 | 9.7 | 0.00 | 0.00 | 0.00 | ||
| 20260905033840 | 20 | 199 | 3.2 | 4.8 | 0.00 | 0.00 | 0.00 | ||
| 20260905033438 | 20 | 180 | 3.2 | 6.4 | 0.00 | 0.00 | 0.00 | ||
| 20260905033030 | 19 | 180 | 1.6 | 3.2 | 0.00 | 0.00 | 0.00 | ||
| 20260905032627 | 20 | 180 | 1.6 | 3.2 | 0.00 | 0.00 | 0.00 | ||
| 20260905032226 | 20 | 180 | 1.6 | 3.2 | 0.00 | 0.00 | 0.00 | ||
| 20260905031825 | 20 | 180 | 3.2 | 4.8 | 0.00 | 0.00 | 0.00 | ||
| 20260905031424 | 19 | 135 | 1.6 | 4.8 | 0.00 | 0.00 | 0.00 | ||
| 20260905031021 | 18 | 135 | 0.0 | 3.2 | 0.00 | 0.00 | 0.00 | ||
| 20260905030620 | 18 | 135 | 0.0 | 1.6 | 0.00 | 0.00 | 0.00 | ||
| 20260905030219 | 20 | 146 | 3.2 | 4.8 | 0.00 | 0.00 | 0.00 | ||
| 20260905025818 | 20 | 180 | 1.6 | 3.2 | 0.00 | 0.00 | 0.00 | ||
| 20260905025414 | 19 | 180 | 0.0 | 1.6 | 0.00 | 0.00 | 0.00 | ||
| 20260905025006 | 19 | 180 | 0.0 | 1.6 | 0.00 | 0.00 | 0.00 | ||
| 20260905024605 | 19 | 180 | 0.0 | 3.2 | 0.00 | 0.00 | 0.00 | ||
| 20260905024204 | 20 | 180 | 0.0 | 0.0 | 0.00 | 0.00 | 0.00 | ||
| 20260905023803 | 20 | 180 | 1.6 | 3.2 | 0.00 | 0.00 | 0.00 | ||
| 20260905023400 | 20 | 180 | 1.6 | 3.2 | 0.00 | 0.00 | 0.00 | ||
| 20260905022959 | 20 | 180 | 1.6 | 3.2 | 0.00 | 0.00 | 0.00 | ||
| 20260905022557 | 20 | 214 | 3.2 | 6.4 | 0.00 | 0.00 | 0.00 | ||
| 20260905022156 | 20 | 315 | 0.0 | 0.0 | 0.00 | 0.00 | 0.00 | ||
| 20260905021754 | 20 | 315 | 3.2 | 6.4 | 0.00 | 0.00 | 0.00 | ||
| 20260905021352 | 20 | 312 | 3.2 | 9.7 | 0.00 | 0.00 | 0.00 | ||
| 20260905020944 | 20 | 21 | 1.6 | 3.2 | 0.00 | 0.00 | 0.00 | ||
| 20260905020542 | 19 | 21 | 0.0 | 3.2 | 0.00 | 0.00 | 0.00 | ||
| 20260905020139 | 20 | 21 | 0.0 | 3.2 | 0.00 | 0.00 | 0.00 | ||
| 20260905015738 | 20 | 21 | 1.6 | 3.2 | 0.00 | 0.00 | 0.00 | ||
| 20260905015336 | 20 | 20 | 1.6 | 3.2 | 0.00 | 0.00 | 0.00 | ||
| 20260905014936 | 20 | 21 | 0.0 | 0.0 | 0.00 | 0.00 | 0.00 | ||
| 20260905014533 | 20 | 21 | 0.0 | 1.6 | 0.00 | 0.00 | 0.00 | ||
| 20260905014132 | 19 | 21 | 1.6 | 4.8 | 0.00 | 0.00 | 0.00 | ||
| 20260905013731 | 20 | 21 | 1.6 | 4.8 | 0.00 | 0.00 | 0.00 | ||
| 20260905013329 | 19 | 21 | 3.2 | 4.8 | 0.00 | 0.00 | 0.00 | ||
| 20260905012921 | 20 | 21 | 3.2 | 6.4 | 0.00 | 0.00 | 0.00 | ||
| 20260905012518 | 21 | 21 | 3.2 | 4.8 | 0.00 | 0.00 | 0.00 | ||
| 20260905012117 | 20 | 21 | 0.0 | 1.6 | 0.00 | 0.00 | 0.00 | ||
| 20260905011716 | 20 | 2 | 1.6 | 3.2 | 0.00 | 0.00 | 0.00 | ||
| 20260905011314 | 20 | 0 | 0.0 | 3.2 | 0.00 | 0.00 | 0.00 | ||
| 20260905010912 | 21 | 0 | 0.0 | 1.6 | 0.00 | 0.00 | 0.00 | ||
| 20260905010510 | 20 | 0 | 0.0 | 3.2 | 0.00 | 0.00 | 0.00 | ||
| 20260905010109 | 20 | 0 | 0.0 | 1.6 | 0.00 | 0.00 | 0.00 | ||
| 20260905005708 | 20 | 0 | 0.0 | 3.2 | 0.00 | 0.00 | 0.00 | ||
| 20260905005306 | 20 | 340 | 4.8 | 6.4 | 0.00 | 0.00 | 0.00 | ||
| 20260905004857 | 20 | 338 | 0.0 | 3.2 | 0.00 | 0.00 | 0.00 | ||
| 20260905004455 | 20 | 338 | 1.6 | 3.2 | 0.00 | 0.00 | 0.00 | ||
| 20260905004054 | 20 | 338 | 1.6 | 3.2 | 0.00 | 0.00 | 0.00 | ||
| 20260905003652 | 20 | 356 | 1.6 | 4.8 | 0.00 | 0.00 | 0.00 | ||
| 20260905003250 | 21 | 0 | 1.6 | 4.8 | 0.00 | 0.00 | 0.00 | ||
| 20260905002849 | 20 | 338 | 1.6 | 3.2 | 0.00 | 0.00 | 0.00 | ||
| 20260905002448 | 20 | 338 | 3.2 | 6.4 | 0.00 | 0.00 | 0.00 | ||
| 20260905002047 | 20 | 344 | 1.6 | 4.8 | 0.00 | 0.00 | 0.00 | ||
| 20260905001644 | 20 | 353 | 3.2 | 6.4 | 0.00 | 0.00 | 0.00 | ||
| 20260905001243 | 20 | 338 | 1.6 | 3.2 | 0.00 | 0.00 | 0.00 | ||
| 20260905000835 | 20 | 317 | 6.4 | 11.3 | 0.00 | 0.00 | 0.00 | ||
| 20260905000433 | 20 | 335 | 6.4 | 8.0 | 0.00 | 0.00 | 0.00 | ||
| 20260905000031 | 21 | 313 | 6.4 | 12.9 | 0.00 | 0.00 | 0.00 | ||
| 20260904235630 | 20 | 341 | 4.8 | 8.0 | 0.00 | 0.00 | 0.00 | ||
| 20260904235228 | 20 | 352 | 1.6 | 8.0 | 0.00 | 0.00 | 0.00 | ||
| 20260904234827 | 20 | 338 | 4.8 | 11.3 | 0.00 | 0.00 | 0.00 | ||
| 20260904234424 | 21 | 301 | 3.2 | 11.3 | 0.00 | 0.00 | 0.00 | ||
| 20260904234023 | 21 | 329 | 8.0 | 14.5 | 0.00 | 0.00 | 0.00 | ||
| 20260904233622 | 20 | 324 | 8.0 | 14.5 | 0.00 | 0.00 | 0.00 | ||
| 20260904233220 | 21 | 320 | 6.4 | 12.9 | 0.00 | 0.00 | 0.00 | ||
| 20260904232811 | 21 | 323 | 6.4 | 14.5 | 0.00 | 0.00 | 0.00 | ||
| 20260904232409 | 21 | 305 | 6.4 | 12.9 | 0.00 | 0.00 | 0.00 | ||
| 20260904232008 | 20 | 316 | 8.0 | 16.1 | 0.00 | 0.00 | 0.00 | ||
| 20260904231607 | 21 | 336 | 11.3 | 16.1 | 0.00 | 0.00 | 0.00 | ||
| 20260904231205 | 21 | 318 | 9.7 | 17.7 | 0.00 | 0.00 | 0.00 | ||
| 20260904230803 | 21 | 318 | 11.3 | 20.9 | 0.00 | 0.00 | 0.00 | ||
| 20260904230401 | 21 | 307 | 11.3 | 19.3 | 0.00 | 0.00 | 0.00 | ||
| 20260904230000 | 21 | 315 | 9.7 | 22.5 | 0.00 | 0.00 | 0.00 | ||
| 20260904225600 | 21 | 322 | 12.9 | 20.9 | 0.00 | 0.00 | 0.00 | ||
| 20260904225156 | 22 | 313 | 12.9 | 29.0 | 0.00 | 0.00 | 0.00 | ||
| 20260904224749 | 22 | 317 | 11.3 | 19.3 | 0.00 | 0.00 | 0.00 | ||
| 20260904224347 | 22 | 311 | 9.7 | 19.3 | 0.00 | 0.00 | 0.00 | ||
| 20260904223946 | 23 | 319 | 14.5 | 32.2 | 0.00 | 0.00 | 0.00 | ||
| 20260904223544 | 24 | 311 | 12.9 | 20.9 | 0.00 | 0.00 | 0.00 | ||
| 20260904223142 | 25 | 298 | 19.3 | 30.6 | 0.00 | 0.00 | 0.00 | ||
| 20260904222741 | 25 | 286 | 22.5 | 29.0 | 0.00 | 0.00 | 0.00 | ||
| 20260904222339 | 26 | 236 | 16.1 | 22.5 | 0.00 | 0.00 | 0.00 | ||
| 20260904221937 | 26 | 241 | 14.5 | 20.9 | 0.00 | 0.00 | 0.00 | ||
| 20260904221536 | 26 | 225 | 17.7 | 32.2 | 0.00 | 0.00 | 0.00 | ||
| 20260904221134 | 26 | 224 | 14.5 | 29.0 | 0.00 | 0.00 | 0.00 | ||
| 20260904220726 | 26 | 230 | 14.5 | 24.1 | 0.00 | 0.00 | 0.00 | ||
| 20260904220324 | 26 | 231 | 17.7 | 32.2 | 0.00 | 0.00 | 0.00 | ||
| 20260904215922 | 26 | 240 | 16.1 | 25.7 | 0.00 | 0.00 | 0.00 | ||
| 20260904215521 | 26 | 228 | 17.7 | 29.0 | 0.00 | 0.00 | 0.00 | ||
| 20260904215119 | 26 | 226 | 17.7 | 24.1 | 0.00 | 0.00 | 0.00 | ||
| 20260904214718 | 26 | 219 | 12.9 | 24.1 | 0.00 | 0.00 | 0.00 | ||
| 20260904214315 | 26 | 221 | 11.3 | 17.7 | 0.00 | 0.00 | 0.00 | ||
| 20260904213914 | 26 | 225 | 11.3 | 17.7 | 0.00 | 0.00 | 0.00 | ||
| 20260904213513 | 26 | 218 | 12.9 | 24.1 | 0.00 | 0.00 | 0.00 | ||
| 20260904213111 | 26 | 223 | 12.9 | 19.3 | 0.00 | 0.00 | 0.00 | ||
| 20260904212702 | 26 | 229 | 16.1 | 27.4 | 0.00 | 0.00 | 0.00 | ||
| 20260904212300 | 26 | 235 | 16.1 | 33.8 | 0.00 | 0.00 | 0.00 | ||
| 20260904211859 | 26 | 235 | 14.5 | 17.7 | 0.00 | 0.00 | 0.00 | ||
| 20260904211458 | 26 | 220 | 14.5 | 27.4 | 0.00 | 0.00 | 0.00 | ||
| 20260904211054 | 26 | 222 | 11.3 | 19.3 | 0.00 | 0.00 | 0.00 | ||
| 20260904210653 | 26 | 207 | 9.7 | 25.7 | 0.00 | 0.00 | 0.00 | ||
| 20260904210251 | 26 | 207 | 12.9 | 22.5 | 0.00 | 0.00 | 0.00 | ||
| 20260904205850 | 26 | 200 | 16.1 | 29.0 | 0.00 | 0.00 | 0.00 | ||
| 20260904205449 | 26 | 202 | 12.9 | 19.3 | 0.00 | 0.00 | 0.00 | ||
| 20260904205046 | 26 | 206 | 14.5 | 24.1 | 0.00 | 0.00 | 0.00 | ||
| 20260904204638 | 26 | 205 | 17.7 | 30.6 | 0.00 | 0.00 | 0.00 | ||
| 20260904204236 | 26 | 212 | 17.7 | 22.5 | 0.00 | 0.00 | 0.00 | ||
| 20260904203835 | 26 | 210 | 16.1 | 25.7 | 0.00 | 0.00 | 0.00 | ||
| 20260904203433 | 26 | 209 | 22.5 | 35.4 | 0.00 | 0.00 | 0.00 | ||
| 20260904203031 | 26 | 204 | 20.9 | 38.6 | 0.00 | 0.00 | 0.00 | ||
| 20260904202630 | 26 | 206 | 19.3 | 33.8 | 0.00 | 0.00 | 0.00 | ||
| 20260904202228 | 26 | 200 | 19.3 | 37.0 | 0.00 | 0.00 | 0.00 | ||
| 20260904201826 | 26 | 206 | 20.9 | 33.8 | 0.00 | 0.00 | 0.00 | ||
| 20260904201425 | 26 | 213 | 19.3 | 35.4 | 0.00 | 0.00 | 0.00 | ||
| 20260904201023 | 26 | 205 | 17.7 | 25.7 | 0.00 | 0.00 | 0.00 | ||
| 20260904200615 | 26 | 205 | 14.5 | 24.1 | 0.00 | 0.00 | 0.00 | ||
| 20260904200212 | 25 | 199 | 16.1 | 22.5 | 0.00 | 0.00 | 0.00 | ||
| 20260904195811 | 25 | 201 | 16.1 | 30.6 | 0.00 | 0.00 | 0.00 | ||
| 20260904195410 | 26 | 201 | 20.9 | 32.2 | 0.00 | 0.00 | 0.00 | ||
| 20260904195008 | 25 | 199 | 14.5 | 27.4 | 0.00 | 0.00 | 0.00 | ||
| 20260904194607 | 25 | 201 | 16.1 | 24.1 | 0.00 | 0.00 | 0.00 | ||
| 20260904194204 | 25 | 207 | 16.1 | 24.1 | 0.00 | 0.00 | 0.00 | ||
| 20260904193803 | 25 | 211 | 11.3 | 20.9 | 0.00 | 0.00 | 0.00 | ||
| 20260904193402 | 25 | 207 | 14.5 | 27.4 | 0.00 | 0.00 | 0.00 | ||
| 20260904193000 | 25 | 199 | 11.3 | 16.1 | 0.00 | 0.00 | 0.00 | ||
| 20260904192551 | 24 | 178 | 8.0 | 12.9 | 0.00 | 0.00 | 0.00 | ||
| 20260904192149 | 24 | 160 | 6.4 | 12.9 | 0.00 | 0.00 | 0.00 | ||
| 20260904191748 | 24 | 164 | 6.4 | 12.9 | 0.00 | 0.00 | 0.00 | ||
| 20260904191347 | 24 | 161 | 6.4 | 9.7 | 0.00 | 0.00 | 0.00 | ||
| 20260904190944 | 23 | 151 | 4.8 | 12.9 | 0.00 | 0.00 | 0.00 | ||
| 20260904190543 | 24 | 156 | 6.4 | 11.3 | 0.00 | 0.00 | 0.00 |